Date String (YYYY-MM-DD hh:mm:ss) UTC,Instrument flags,Ambient pressure (hPa),Sample flow (lpm),Bypass flow (lpm),Sample temperature (°C),Ambient temperature (°C),ASC tube jacket temperature (°C),LED temperature (°C),Box temperature (°C),Sample RH (%),Span deviation,Mass concentration (μg/m³),Mass concentration (μg/m³),Mass concentration (μg/m³)
DateTimeUTC,F1_M11,P_M11,Q1_M11,Q2_M11,T1_M11,T2_M11,T3_M11,T4_M11,T5_M11,U1_M11,ZSPAN_M11,X0_M11,X2_M11,X1_M11
2022-07-28 15:00:00,,0833.1,5.00,0.00,30.8,29.5,00.0,39.5,32.5,33.9,0000.0,0003.91,0002.29,0001.52
2022-07-28 15:01:00,,0833.2,5.00,0.00,30.8,29.5,00.0,39.5,32.5,34.2,0000.0,0004.08,0002.39,0001.57
2022-07-28 15:02:00,,0833.1,5.01,0.00,30.8,29.6,00.0,39.5,32.5,33.2,0000.0,0004.12,0002.42,0001.61
2022-07-28 15:03:00,,0833.2,5.00,0.00,30.8,29.6,00.0,39.6,32.6,32.8,0000.0,0004.26,0002.49,0001.66
2022-07-28 15:04:00,,0833.1,4.99,0.00,30.9,29.6,00.0,39.5,32.6,33.0,0000.0,0004.22,0002.51,0001.69
2022-07-28 15:05:00,,0833.1,5.00,0.00,30.9,29.6,00.0,39.6,32.6,32.8,0000.0,0004.09,0002.51,0001.71
2022-07-28 15:06:00,,0833.1,5.00,0.00,30.9,29.6,00.0,39.6,32.6,32.9,0000.0,0004.10,0002.50,0001.73
2022-07-28 15:07:00,,0833.1,5.00,0.00,30.9,29.6,00.0,39.6,32.6,32.6,0000.0,0004.33,0002.52,0001.74
2022-07-28 15:08:00,,0833.2,5.01,0.00,30.8,29.6,00.0,39.6,32.6,32.3,0000.0,0004.10,0002.44,0001.73
2022-07-28 15:09:00,,0833.2,4.99,0.00,30.9,29.6,00.0,39.6,32.6,32.4,0000.0,0004.03,0002.40,0001.73
2022-07-28 15:10:00,,0833.2,5.01,0.00,30.9,29.2,00.0,39.5,32.5,32.6,0000.0,0004.00,0002.39,0001.73
2022-07-28 15:11:00,,0833.2,4.98,0.00,30.8,28.4,00.0,39.5,32.4,32.6,0000.0,0003.92,0002.39,0001.74
2022-07-28 15:12:00,,0833.2,5.01,0.00,30.7,28.1,00.0,39.4,32.3,32.6,0000.0,0003.86,0002.39,0001.76
2022-07-28 15:13:00,,0833.3,5.00,0.00,30.6,28.0,00.0,39.4,32.1,33.0,0000.0,0003.90,0002.44,0001.80
2022-07-28 15:14:00,,0833.3,5.00,0.00,30.6,28.1,00.0,39.4,32.1,33.6,0000.0,0003.82,0002.44,0001.81
2022-07-28 15:15:00,,0833.3,5.00,0.00,30.5,28.2,00.0,39.4,32.1,33.5,0000.0,0003.97,0002.50,0001.85
2022-07-28 15:16:00,,0833.3,5.00,0.00,30.5,28.3,00.0,39.3,32.1,33.3,0000.0,0003.90,0002.50,0001.89
2022-07-28 15:17:00,,0833.2,5.00,0.00,30.5,28.4,00.0,39.3,32.1,33.3,0000.0,0003.83,0002.52,0001.93
2022-07-28 15:18:00,,0833.3,5.00,0.00,30.4,28.5,00.0,39.3,32.1,33.5,0000.0,0003.86,0002.59,0001.97
2022-07-28 15:19:00,,0833.4,5.01,0.00,30.4,28.6,00.0,39.3,32.1,33.4,0000.0,0004.06,0002.68,0002.02
2022-07-28 15:20:00,,0833.4,5.00,0.00,30.4,28.7,00.0,39.3,32.1,33.5,0000.0,0004.18,0002.78,0002.06
2022-07-28 15:21:00,,0833.4,4.99,0.00,30.4,28.8,00.0,39.2,32.1,33.7,0000.0,0004.19,0002.79,0002.09
2022-07-28 15:22:00,,0833.4,5.01,0.00,30.4,28.9,00.0,39.2,32.2,33.9,0000.0,0004.10,0002.76,0002.08
2022-07-28 15:23:00,,0833.5,5.00,0.00,30.4,29.0,00.0,39.2,32.2,33.9,0000.0,0004.08,0002.76,0002.09
2022-07-28 15:24:00,,0833.5,5.01,0.00,30.5,29.0,00.0,39.2,32.2,33.7,0000.0,0004.13,0002.77,0002.10
2022-07-28 15:25:00,,0833.5,5.00,0.00,30.4,29.1,00.0,39.2,32.2,33.8,0000.0,0004.31,0002.83,0002.12
2022-07-28 15:26:00,,0833.5,5.00,0.00,30.5,29.1,00.0,39.2,32.2,34.1,0000.0,0004.19,0002.80,0002.13
2022-07-28 15:27:00,,0833.4,5.00,0.00,30.5,29.2,00.0,39.2,32.3,33.6,0000.0,0004.57,0002.85,0002.14
2022-07-28 15:28:00,,0833.5,5.00,0.00,30.5,29.2,00.0,39.2,32.3,33.6,0000.0,0004.86,0002.92,0002.15
2022-07-28 15:29:00,,0833.4,5.00,0.00,30.5,29.3,00.0,39.2,32.3,33.8,0000.0,0004.88,0002.91,0002.14
2022-07-28 15:30:00,,0833.3,5.00,0.00,30.5,29.3,00.0,39.2,32.3,33.6,0000.0,0004.86,0002.89,0002.12
2022-07-28 15:31:00,,0833.3,4.99,0.00,30.5,29.3,00.0,39.3,32.3,33.4,0000.0,0004.89,0002.85,0002.08
2022-07-28 15:32:00,,0833.3,4.99,0.00,30.5,29.3,00.0,39.3,32.3,33.6,0000.0,0004.81,0002.79,0002.04
2022-07-28 15:33:00,,0833.3,5.00,0.00,30.5,29.4,00.0,39.3,32.3,33.9,0000.0,0004.77,0002.78,0002.02
2022-07-28 15:34:00,,0833.2,5.00,0.00,30.6,29.4,00.0,39.3,32.4,34.0,0000.0,0004.76,0002.76,0001.99
2022-07-28 15:35:00,,0833.2,5.00,0.00,30.6,29.4,00.0,39.3,32.4,33.8,0000.0,0004.77,0002.74,0001.98
2022-07-28 15:36:00,,0833.2,5.00,0.00,30.6,29.4,00.0,39.3,32.4,33.5,0000.0,0004.92,0002.68,0001.94
2022-07-28 15:37:00,,0833.2,5.01,0.00,30.6,29.5,00.0,39.3,32.4,33.4,0000.0,0005.25,0002.65,0001.93
2022-07-28 15:38:00,,0833.2,5.01,0.00,30.6,29.5,00.0,39.3,32.4,33.2,0000.0,0005.02,0002.61,0001.93
2022-07-28 15:39:00,,0833.3,5.00,0.00,30.6,29.5,00.0,39.3,32.4,33.3,0000.0,0004.64,0002.56,0001.92
2022-07-28 15:40:00,,0833.3,5.01,0.00,30.6,29.5,00.0,39.3,32.5,33.4,0000.0,0005.41,0002.50,0001.92
2022-07-28 15:41:00,,0833.3,5.00,0.00,30.6,29.4,00.0,39.3,32.5,33.4,0000.0,0005.67,0002.47,0001.94
2022-07-28 15:42:00,,0833.3,5.00,0.00,30.6,28.6,00.0,39.3,32.3,33.9,0000.0,0005.57,0002.49,0001.96
2022-07-28 15:43:00,,0833.3,5.00,0.00,30.5,27.7,00.0,39.2,32.2,33.8,0000.0,0005.57,0002.51,0001.98
2022-07-28 15:44:00,,0833.3,5.00,0.00,30.4,27.4,00.0,39.2,32.0,33.6,0000.0,0005.82,0002.61,0002.04
2022-07-28 15:45:00,,0833.3,5.00,0.00,30.3,27.4,00.0,39.1,31.9,34.0,0000.0,0005.93,0002.65,0002.07
2022-07-28 15:46:00,,0833.3,5.00,0.00,30.2,27.5,00.0,39.1,31.8,34.3,0000.0,0006.04,0002.71,0002.09
2022-07-28 15:47:00,,0833.3,5.01,0.00,30.2,27.6,00.0,39.1,31.8,34.7,0000.0,0005.86,0002.75,0002.12
2022-07-28 15:48:00,,0833.2,4.99,0.00,30.2,27.8,00.0,39.0,31.8,35.3,0000.0,0005.56,0002.80,0002.12
2022-07-28 15:49:00,,0833.3,5.01,0.00,30.3,28.0,00.0,39.0,32.0,34.6,0000.0,0005.73,0002.84,0002.12
2022-07-28 15:50:00,,0833.3,4.99,0.00,30.5,28.2,00.0,39.0,32.0,34.1,0000.0,0005.82,0002.85,0002.11
2022-07-28 15:51:00,,0833.3,5.00,0.00,30.6,28.3,00.0,39.0,32.0,34.2,0000.0,0005.15,0002.89,0002.12
2022-07-28 15:52:00,,0833.3,5.00,0.00,30.6,28.4,00.0,39.0,32.0,34.5,0000.0,0004.81,0002.97,0002.13
2022-07-28 15:53:00,,0833.4,5.00,0.00,30.6,28.5,00.0,39.0,32.0,34.5,0000.0,0006.34,0002.97,0002.14
2022-07-28 15:54:00,,0833.3,5.00,0.00,30.6,28.6,00.0,39.1,32.0,34.1,0000.0,0006.68,0003.02,0002.17
2022-07-28 15:55:00,,0833.4,5.00,0.00,30.6,28.7,00.0,39.1,32.1,33.9,0000.0,0006.68,0003.02,0002.20
2022-07-28 15:56:00,,0833.4,4.99,0.00,30.6,28.8,00.0,39.1,32.1,33.9,0000.0,0006.70,0003.06,0002.23
2022-07-28 15:57:00,,0833.3,5.01,0.00,30.6,28.9,00.0,39.1,32.1,34.5,0000.0,0006.89,0003.08,0002.25
2022-07-28 15:58:00,,0833.4,4.99,0.00,30.6,28.9,00.0,39.1,32.1,34.2,0000.0,0006.94,0003.11,0002.26
2022-07-28 15:59:00,,0833.3,5.01,0.00,30.6,29.0,00.0,39.2,32.2,34.0,0000.0,0006.99,0003.15,0002.29
